Location: Barekling
(6.3333°N, 10.7333°W)
Time: 07:14:23
(UTC+00:00)

Daily predictions for brighter satellites

Satellite Brightness Start Highest point End
(mag) Time Altitude Azimuth Time Altitude Azimuth Time Altitude Azimuth
OAO 1 Rocket 4.5 18:38:28 10° NW 18:43:46 82° NE 18:49:05 10° SE
ISO 3.2 18:45:24 10° SW 18:47:46 24° S 18:50:56 10° ESE
Cosmos 2344 4.5 18:40:56 10° S 18:48:58 32° ESE 18:55:41 10° NE
Okean-O 2.6 18:49:37 10° SSE 18:54:02 81° E 18:58:28 10° N
Cosmos 1570 Rocket 4.3 18:50:51 10° S 18:55:53 46° ESE 19:00:58 10° NNE
Atlas Centaur 2 3.2 18:52:47 10° WNW 18:59:39 51° SW 19:05:05 10° SE
Cosmos 1300 2.6 18:57:52 10° S 19:01:40 89° ESE 19:05:29 10° N
COSMO-SKYMED 1 4.5 18:57:49 10° NNW 19:01:42 33° WNW 19:05:36 10° SW
ASTRO E2 3.8 19:01:34 10° WNW 19:05:22 42° SSW 19:09:10 10° SE
TELKOM 3 4.0 19:03:38 10° SW 19:06:00 41° NW 19:08:02 10° NNE
Cosmos 1833 Rocket 3.7 19:06:31 10° NNE 19:10:44 22° ENE 19:14:58 10° ESE
Cosmos 540 Rocket 4.3 19:06:38 10° SSE 19:10:58 28° E 19:14:44 13° NE
deb Ariane 2.9 19:08:31 10° W 19:11:07 76° N 19:16:09 16° E
Cosmos 2369 Rocket 2.7 19:06:44 10° S 19:11:55 37° ESE 19:17:04 10° NE
Cosmos 2208 Rocket 4.0 19:06:54 10° S 19:12:04 58° ESE 19:17:10 10° NNE
SWIFT 4.3 19:09:24 10° WNW 19:12:34 20° NNW 19:15:39 10° NE
Cosmos 1763 Rocket 3.5 19:08:15 10° S 19:13:34 87° E 19:18:52 10° NNE
ADEOS Rocket 4.2 19:09:47 10° NE 19:14:53 23° E 19:19:37 10° SSE
Lacrosse 5 rocket 1.8 19:12:28 10° NW 19:16:29 65° WSW 19:20:48 10° SSE
CSL-04 Debris 4.4 19:13:16 10° SSE 19:18:23 44° ENE 19:23:31 10° N
Cosmos 1777 Rocket 4.0 19:13:32 10° N 19:18:36 55° ENE 19:23:40 10° SSE
Cosmos 1076 Rocket 4.2 19:19:04 10° NNE 19:22:48 29° E 19:26:32 10° SE
Cosmos 192 4.2 19:18:05 10° S 19:22:57 79° ESE 19:27:50 10° NNE
ATLAS 3B R/B 4.4 19:17:23 10° SW 19:23:24 32° WNW 19:29:18 10° N
YAOGAN 1 2.5 19:24:31 10° SSE 19:28:46 59° ENE 19:33:00 10° N
Envisat 3.6 19:26:07 10° S 19:31:07 60° WSW 19:36:06 10° NNW
USA 215 3.2 19:24:35 10° SE 19:31:09 89° SW 19:37:43 10° NW
IUS-13 SRM-1 3.9 19:27:10 10° WNW 19:31:12 87° NNE 19:54:45 10° ESE
Cosmos 1943 Rocket 2.0 19:25:58 10° S 19:31:27 75° ESE 19:36:58 10° NNE
Cosmos 1605 Rocket 4.2 19:25:46 10° N 19:31:49 72° W 19:37:52 10° S
Cosmos 1814 Rocket 3.8 19:33:22 10° S 19:38:31 80° ESE 19:43:44 10° NNE
GPS 2-14 Rocket1 4.0 19:35:14 10° SW 19:38:51 28° SSE 19:39:33 27° SE
Cosmos 2123 Rocket 4.1 19:32:57 10° SSE 19:39:04 53° E 19:45:09 10° NNE
BLOCK DM-SL 4.4 19:31:16 10° W 19:41:46 61° S 19:45:21 25° ESE
Cosmos 2082 Rocket 3.4 19:39:06 10° NNE 19:41:43 23° NE 19:41:43 23° NE
ARIANE 5 R/B 3.4 19:42:53 10° WSW 19:45:13 16° SSW 19:45:45 15° S
Cosmos 2173 Rocket 4.1 19:43:01 10° NNE 19:48:49 45° E 19:54:34 10° SSE
Meteor 2-10 Rocket 3.9 19:43:59 10° SSE 19:49:00 42° E 19:49:00 42° E
CZ-2C R/B 3.6 19:47:17 29° NNE 19:49:38 71° ESE 19:54:20 10° S
CZ-4 R/B 2.7 19:46:42 10° S 19:50:34 41° W 19:54:29 10° NNW
ARIANE 5 R/B 4.2 19:44:23 10° WSW 19:51:23 24° SSW 19:52:53 18° SSE
Cosmos-2242 4.0 19:49:18 10° SSW 19:53:31 47° W 19:57:42 10° NNW
Cosmos 2263 4.0 19:51:41 10° S 19:57:17 76° ESE 19:59:11 42° NNE
Centaur D-1AR AC-41 4.3 19:53:25 10° WNW 19:57:54 23° NNW 19:58:48 21° N
Ariane H10 4.2 19:56:41 10° W 20:00:38 82° S 20:04:59 36° E
SL-4 R/B 4.3 19:59:48 10° WNW 20:02:19 19° SW 20:04:46 10° S
Cosmos 1455 3.2 20:00:43 10° S 20:03:12 38° SSW 20:03:12 38° SSW
Ariane H10-3 3.3 20:13:39 10° WSW 20:16:28 56° S 20:16:28 56° S
Cosmos 2100 Rocket 3.9 20:11:48 10° N 20:17:55 80° W 20:24:05 10° S
USA 234 3.4 20:16:59 40° NNE 20:19:26 67° NW 20:25:55 10° SW
Delta 202 4.5 20:33:53 10° WSW 20:37:49 45° WSW 20:37:49 45° WSW
ATLAS 5 CENTAUR R/B 3.8 20:34:03 10° W 20:40:59 59° N 20:46:00 46° NE
